Regional Weather Roundup
Issued by NWS Wakefield, VA

Home | Current Version | Previous Version | Text Only | Print | Product List | Glossary On
Versions: 1 2 3 4 5 6 7 8 9 10 11 12 13 14 15 16 17 18 19 20 21 22 23 24 25 26 27
000
ASUS41 KAKQ 240415
RWRAKQ

REGIONAL WEATHER ROUNDUP
NATIONAL WEATHER SERVICE WAKEFIELD VA
1200 AM EDT WED MAY 24 2017

Note: "fair" indicates few or no clouds below 12,000 feet with no
significant weather and/or obstructions to visibility. * = Denotes
station may not report precipitation (e.g., rain,snow,etc.),
thunder or fog.

VAZ042-051-052>054-056-240500-
NORTHERN VIRGINIA

CITY           SKY/WX    TMP DP  RH WIND       PRES   REMARKS
WASH NATIONAL  CLOUDY    61  57  87 N6        29.75F
DULLES         LGT RAIN  59  57  93 N3        29.76S FOG
FORT BELVOIR   CLOUDY    58  56  90 CALM      29.75F
QUANTICO       CLOUDY    60  56  86 N6        29.76R
FREDERICKSBRG* CLOUDY    59  59 100 N3        29.73F
STAFFORD*      LGT RAIN  57  57 100 N5        29.79F
WARRENTON      RAIN      59  55  87 N5        29.76S
CULPEPER*      RAIN      60  60 100 NE3       29.76F
MANASSAS*      LGT RAIN  57  55  94 N5        29.76F
LEESBURG*      LGT RAIN  59  59 100 N5        29.78S
WINCHESTER     RAIN      55  54  94 CALM      29.77F
FRONT ROYAL*   CLOUDY    55  55 100 CALM      29.76F
LURAY*         RAIN      55  55 100 N8        29.76S
$$

VAZ048-049-060>072-079>083-240500-
CENTRAL AND SOUTH CENTRAL VIRGINIA

CITY           SKY/WX    TMP DP  RH WIND       PRES   REMARKS
RICHMOND       CLOUDY    59  59 100 NE9       29.70F
CHESTERFIELD*  NOT AVBL
PETERSBURG*    DRIZZLE   60  59  98 N8        29.70F
HANOVER        CLOUDY    59  56  89 VRB3      29.72F
TAPPAHANNOCK*  RAIN      60  60 100 N5        29.73F
QUINTON*       CLOUDY    59  59 100 N3        29.70F FOG
CHARLOTTSVILLE RAIN      61  59  93 N6        29.74S FOG
GORDONSVILLE*  CLOUDY    58  58 100 NE7       29.73F FOG
ORANGE*        RAIN      57  55  94 NE3       29.75S
LOUISA*        RAIN      63  61  94 N8        29.72S
BUMPASS*       CLOUDY    58  58 100 NW5       29.73F
FARMVILLE*     LGT RAIN  62  59  91 NE8       29.69F
CREWE*         CLOUDY    60  56  87 NE5       29.69F
FORT PICKETT*  CLOUDY   N/A N/A N/A NE6       29.69F
CHASE CITY*    CLOUDY    61  59  94 E3        29.69F
CLARKSVILLE*   CLOUDY    61  61 100 E8        29.67F
SOUTH HILL*    CLOUDY    60  60 100 CALM      29.74F
LAWRENCEVILLE* CLOUDY    61  60  97 CALM      29.68F
EMPORIA*       CLOUDY    61  61 100 N3        29.69F
$$

VAZ088>098-240500-
SOUTHEAST VIRGINIA

CITY           SKY/WX    TMP DP  RH WIND       PRES   REMARKS
NORFOLK        RAIN      60  60 100 NE8       29.67R FOG
VIRGINIA BEACH RAIN      59  58  96 N6        29.66R FOG
NORFOLK NAVAL  LGT RAIN  63  60  90 NE13      29.68S FOG
WEST POINT*    CLOUDY    61  60  97 CALM      29.72S
SALUDA*        CLOUDY    61  61  99 NE7       29.70R
NEWPORT NEWS   LGT RAIN  62  60  93 NE8       29.68S
LANGLEY AFB    CLOUDY    61  61 100 NE15      29.67S
FORT EUSTIS    CLOUDY    63  61  94 NE5       29.66S
WILLIAMSBURG*  CLOUDY    63  63 100 CALM      29.69F
HR EXEC AP*    CLOUDY    64  59  82 E3        29.67S
FRANKLIN*      CLOUDY    62  60  93 E9G17     29.68S
US460-WAKEFLD  CLOUDY    62  61  96 CALM      29.70R
$$

VAZ020-022-025-037-045-240500-
WEST CENTRAL AND SOUTHWEST VIRGINIA

CITY           SKY/WX    TMP DP  RH WIND       PRES   REMARKS
STAUNTON*      RAIN      57  56  99 N5        29.78F
WAYNESBORO*    CLOUDY    56  56 100 N7        29.76S
HOT SPRINGS VA RAIN      46  46 100 E9        29.78F VSB<1/4
LYNCHBURG      LGT RAIN  59  58  96 VRB7      29.73F
DANVILLE       LGT RAIN  61  61 100 N5        29.69F FOG
SOUTH BOSTON*  CLOUDY    62  60  95 E3        29.69F
MARTINSVILLE   CLOUDY    58  57  96 N3        29.74F
ROANOKE        CLOUDY    58  57  97 NE8       29.76F
BLACKSBURG     RAIN      56  55  94 NE6       29.77F
DUBLIN*        CLOUDY    57  55  91 NE6       29.75F
MARION*        CLOUDY    57  54  91 E6        29.77S
HILLSVILLE*    RAIN      55  51  87 CALM      29.73F
RICHLANDS*     DRIZZLE   56  56  98 SE7       29.71S
WISE*          RAIN      61  61 100 SW8       29.71R
ABINGDON*      CLOUDY    61  61  99 E5        29.71R
$$

MDZ021>025-VAZ099-100-240500-
SOUTHERN MARYLAND AND THE DELMARVA PENINSULA

CITY           SKY/WX    TMP DP  RH WIND       PRES   REMARKS
PATUXENT RIVER LGT RAIN  59  59 100 N8        29.73R
BAY BRIDGE APT CLOUDY    59  54  82 E7        29.75F
LEONARDTOWN    CLOUDY    57  55  94 CALM      29.75R
DOVER          CLEAR     58  58 100 NE12      29.73F
GEORGETOWN     LGT RAIN  57  55  93 NE12      29.72F
EASTON         LGT RAIN  58  55  87 NE6       29.76F
CAMBRIDGE        N/A     57  55  94 NE7       29.71F FOG
SALISBURY      LGT RAIN  57  57 100 E12       29.70F
OCEAN CITY     RAIN      57  56  96 NE14      29.72F
WALLOPS ISLAND RAIN      59  59 100 NE16      29.69F FOG
ACCOMACK*      DRIZZLE   60  44  55 NE15      29.68F
$$

NCZ012>017-030>032-240500-
NORTH CENTRAL AND EASTERN NORTH CAROLINA

CITY           SKY/WX    TMP DP  RH WIND       PRES   REMARKS
ROANOKE RAPIDS CLOUDY    61  61 100 CALM      29.68F
RALEIGH        CLOUDY    67  65  93 E3        29.67S
ELIZABETH CITY CLOUDY    65  65 100 NW5       29.66S
AHOSKIE*         N/A     61  61  99 NE5       29.66F
EDENTON*       CLOUDY    71  68  89 CALM      29.68R
CURRITUCK*     CLOUDY   N/A N/A N/A CALM      29.67R
KILL DEVIL HLS LGT RAIN  70  70 100 CALM      29.66R
MANTEO         DRIZZLE   70  69  95 W13       29.68R
CAPE HATTERAS  LGT RAIN  74  71  91 SW16G26   29.68F FOG
TARBORO*       NOT AVBL
GOLDSBORO      LGT RAIN  70  70 100 SW5       29.66F
WASHINGTON     CLOUDY    69  67  94 SW7       29.67F
GREENVILLE     CLOUDY    70  70 100 SW6       29.69F
NEW BERN       CLOUDY    69  69 100 SW6       29.69F
WILMINGTON     CLOUDY    70  69  97 S6        29.69F
$$

VAZ048-240500-
ELSEWHERE

CITY           SKY/WX    TMP DP  RH WIND       PRES   REMARKS
HARRISBURG PA  CLOUDY    60  53  77 CALM      29.76F
BALTIMORE      CLOUDY    60  58  92 E7        29.75F
ANNAPOLIS      CLOUDY    63  54  72 NE6       29.74F
ANDREWS AFB    CLOUDY    58  55  91 N5        29.74S
PHILADELPHIA   LGT RAIN  61  50  67 NE6       29.77F
GREENSBORO     CLOUDY    61  61 100 CALM      29.69S
ROCKY MOUNT    CLOUDY    65  65 100 N6        29.68S
$$

VAZ100-240500-
MARINE

STATION/POSITION TIME  TEMP    WIND        PRES    WAVE   SWELL
                       AIR SEA DIR/SP/G            HT/PER HT/PER
                 (UTC) (F)     (DEG/KT/KT) (MB)    (FT/S) (FT/S)
CAPE MAY NJ      0342   56 61   60/  5/ 10 1007.0F
LEWES DE         0342   58 63   80/ 17/ 19 1006.6F
15NM E FENWICK I 0350   57 56   30/ 14/ 16 1006.8F   3/ 7   2/ 7
WACHAPREAGUE VA  0348   59 65   40/ 18/ 21 1004.5F
THOMAS POINT MD  0400   61 65   50/ 10/ 11   N/A
GOOSES REEF MD   0400   61 56   60/ 14/ 17 1007.4    2/ 3
COVE POINT MD    0348   59      40/ 10/ 12 1007.3R
SOLOMONS ISLAND  0348   59 67   10/  4/  7   N/A
BISHOPS HEAD MD  0342   58 66   50/ 13/ 15 1005.8F
PINEY POINT MD   0348           10/  8/ 10   N/A
POTOMAC MD       0400   61 66   30/ 10/ 12 1005.5    2/ 3
CAMBRIDGE MD     0342   58 68                N/A
LEWISETTA VA     0348   61 67   30/  7/ 10 1006.5R
RAPPAHANNOCK LGT 0348           50/ 16/ 17 1005.1F
STINGRAY PT      0350   62      80/ 16/ 19 1005.0F
YORK RVR RNG VA  0348   63      60/ 16/ 19 1004.2F
YORKTOWN VA      0348   63 69   40/  9/ 15 1004.5F
JAMESTOWN VA     0400   62 72   40/  4/  8   N/A     0
DOMINION TERM VA 0348   62      40/  3/  7 1004.9F
KIPTOPEKE VA     0348      66   60/ 10/ 16   N/A
CHES BAY BRIDGE  0348   61 63   50/ 19/ 21 1003.9R
CAPE HENRY VA    0348   60      30/ 19/ 21   N/A
WILLOUBY STN VA  0348   62      40/ 14/ 16 1004.5R
S CRANEY ISL VA  0348   63      50/ 10/ 14 1004.5R
CAPE HENRY BUOY  0342      62                N/A     4/ 5
1ST LANDING BUOY 0400   61 63              1004.4    3/ 4
CAPE CHARLES BUO 0351      62                N/A     5/ 5
64NM E OF VA BCH 0350   68 65  210/ 16/ 17 1004.2F   5/ 7   3/12
DUCK PIER NC     0348   71 62  230/ 16/ 20 1003.8S
44100 DUCK FRF   0335      65                N/A     4/ 6   2/13
44056 DUCK FRF   0330      65                N/A     3/ 5   2/13
OREGON INLET NC  0348          220/ 17/ 21   N/A
HATTERAS NC      0348   74 74  210/ 14/ 21 1004.9F
DIAMOND SHLS NC  0350   76 75  220/ 21/ 25 1005.4F   6/ 7   2/12
CAPE LOOKOUT NC  0300   73     210/ 13/ 18 1005.8F
$$




USA.gov is the U.S. government's official web portal to all federal, state and local government web resources and services.